Location: Heilwood
(40.6210°N, 78.9150°W)
Time: 05:57:37
(UTC-04:00)

BREEZE-M DEB (TANK) - Visible Passes

Search period start: 29 August 2014 00:00
Search period end: 08 September 2014 00:00
Orbit: 275 x 16076 km, 49.5° (Epoch: 27 August)

Date Brightness Start Highest point End Pass type
(mag) Time Alt. Az. Time Alt. Az. Time Alt. Az.
29 Aug 8.3 00:15:08 10° WSW 02:58:43 78° NNE 03:46:24 10° ESE visible
29 Aug 8.3 19:19:14 10° S 20:29:37 60° E 22:37:58 10° ENE visible
30 Aug 8.2 00:35:02 10° W 03:22:12 80° NNE 04:03:42 10° ESE visible
30 Aug 8.4 19:34:56 10° S 20:45:39 65° ESE 22:57:17 10° ENE visible
31 Aug 8.1 00:55:27 10° W 03:44:09 83° NNE 04:20:48 10° ESE visible
31 Aug 8.4 19:50:53 10° SSW 21:02:34 70° ESE 23:16:24 10° ENE visible
01 Sep 8.0 01:16:26 10° W 04:04:52 86° NNE 04:37:42 10° ESE visible
01 Sep 8.5 20:07:01 10° SSW 21:20:29 76° ESE 23:35:17 10° ENE visible
02 Sep 7.8 01:38:01 10° W 04:24:35 90° SW 04:54:26 10° SE visible
02 Sep 8.6 20:23:20 10° SSW 21:39:30 81° ESE 23:53:58 10° ENE visible
03 Sep 7.7 02:00:13 10° WNW 04:43:28 85° SW 05:10:57 10° SE visible
03 Sep 8.6 20:39:49 10° SSW 21:59:50 86° SE 00:12:27 10° ENE visible
04 Sep 7.6 02:23:00 10° WNW 05:01:35 80° SW 05:27:18 10° SE visible
04 Sep 8.7 20:56:29 10° SW 22:21:43 90° NW 00:30:43 10° ENE visible
05 Sep 7.5 02:46:20 10° WNW 05:19:03 74° SW 05:43:26 10° SSE visible
05 Sep 8.7 21:13:20 10° SW 22:45:33 86° NW 00:48:47 10° E visible
06 Sep 7.4 03:10:06 10° WNW 05:35:54 67° WSW 05:59:23 10° SSE visible
06 Sep 8.6 21:30:22 10° SW 23:11:53 82° NW 01:06:38 10° E visible
07 Sep 7.4 03:34:12 10° WNW 05:52:10 61° WSW 06:15:07 10° S visible
07 Sep 9.0 21:47:37 10° SW 23:41:08 80° NNW 00:00:00 78° NNE visible
